sat.trackr.live / text

‹ back to catalog

STARLINK-2446

NORAD 47844 · 2021-018BK

PAYLOAD ACTIVE UNKNOWN

§ Identity

Operator
Country
US
Launch date
2021-03-11
Launch site
AFETR
Launch vehicle
Mass (kg)
RCS (m²)

Purposes: comms

External: N2YO · Heavens-Above · Gunter

§ Orbital elements

Epoch: 2026-09-20T00:12:05.346144Z

Period
93.55 min
Inclination
53.1567°
Eccentricity
0.0003498
Mean motion
15.39316233 rev/d
Perigee alt
445.7 km
Apogee alt
450.5 km
Semi-major
6,826.3 km
B*
9.9923e-4
RAAN
58.8600°
Arg perigee
142.4066°
Mean anomaly
217.7184°
Rev number
30,649

§ Raw data

STARLINK-24461 47844U 21018BK  26263.00839521  .00039383  00000+0  99923-3 0  99962 47844  53.1567  58.8600 0003498 142.4066 217.7184 15.39316233306498

JSON: /api/v1/satellites/47844 · /tle

For live sub-satellite position, see the globe view (requires WebGL).

§ Visibility from observer

Set your observer location to see the next 7 days of passes ≥ 10°. The values pass through the URL so the page stays shareable.

No JS? Fill the form by hand. The geolocation button needs JavaScript.